PDT328 KLAX-KPSP

Flight info

Callsign PDT328
Flight time 0h 36m
Altitude 17000
Route SLI8 SLI V64 TRM
Aircraft DH8D/M-SDE2E3FGRY/H

Departure

Time 2026-05-06 02:33
Airport Los Angeles International Airport (KLAX)

Arrival

Time 2026-05-06 03:09
Airport Palm Springs International Airport (KPSP)
Time Latitude Longitude Altitude Speed Heading
2026-05-06 02:01 33.94749 -118.40369 123 ft 0 kts 202°
2026-05-06 02:20 33.94753 -118.40368 123 ft 1 kts 172°
2026-05-06 02:21 33.94762 -118.40369 123 ft 2 kts 167°
2026-05-06 02:21 33.94776 -118.40376 123 ft 2 kts 151°
2026-05-06 02:21 33.94788 -118.40385 123 ft 2 kts 147°
2026-05-06 02:21 33.94797 -118.40396 123 ft 2 kts 123°
2026-05-06 02:22 33.94803 -118.40412 123 ft 2 kts 97°
2026-05-06 02:22 33.94802 -118.40424 123 ft 0 kts 82°
2026-05-06 02:25 33.94803 -118.40416 123 ft 4 kts 82°
2026-05-06 02:25 33.94809 -118.40369 123 ft 6 kts 82°
2026-05-06 02:26 33.94830 -118.40315 122 ft 8 kts 31°
2026-05-06 02:26 33.94881 -118.40282 122 ft 8 kts 45°
2026-05-06 02:26 33.94904 -118.40215 121 ft 9 kts 80°
2026-05-06 02:26 33.94914 -118.40131 121 ft 10 kts 84°
2026-05-06 02:27 33.94922 -118.40047 120 ft 10 kts 84°
2026-05-06 02:27 33.94933 -118.39959 119 ft 10 kts 70°
2026-05-06 02:27 33.94947 -118.39937 119 ft 0 kts 32°
2026-05-06 02:28 33.94948 -118.39937 119 ft 0 kts 32°
2026-05-06 02:28 33.94947 -118.39937 119 ft 0 kts 32°
2026-05-06 02:31 33.94963 -118.39928 119 ft 9 kts 18°
2026-05-06 02:31 33.95031 -118.39945 119 ft 10 kts 308°
2026-05-06 02:31 33.95038 -118.39991 119 ft 0 kts 265°
2026-05-06 02:32 33.95032 -118.40057 120 ft 42 kts 264°
2026-05-06 02:32 33.94954 -118.40801 126 ft 129 kts 263°
2026-05-06 02:32 33.94853 -118.41958 401 ft 156 kts 263°
2026-05-06 02:32 33.94807 -118.42512 668 ft 160 kts 263°
2026-05-06 02:33 33.94696 -118.43832 1219 ft 175 kts 266°
2026-05-06 02:33 33.94648 -118.44746 1811 ft 168 kts 267°
2026-05-06 02:33 33.94396 -118.47781 3678 ft 164 kts 264°
2026-05-06 02:34 33.94232 -118.49117 4370 ft 167 kts 264°
2026-05-06 02:34 33.94052 -118.50472 5010 ft 170 kts 264°
2026-05-06 02:34 33.93854 -118.51887 5635 ft 175 kts 264°
2026-05-06 02:34 33.93643 -118.53310 6280 ft 176 kts 264°
2026-05-06 02:35 33.93422 -118.54766 6892 ft 180 kts 264°
2026-05-06 02:35 33.93202 -118.56243 7534 ft 182 kts 264°
2026-05-06 02:35 33.92976 -118.57727 8147 ft 184 kts 264°
2026-05-06 02:35 33.92736 -118.59234 8732 ft 187 kts 263°
2026-05-06 02:36 33.92495 -118.60748 9342 ft 189 kts 264°
2026-05-06 02:36 33.92231 -118.62289 9911 ft 191 kts 259°
2026-05-06 02:36 33.91543 -118.63667 10404 ft 202 kts 222°
2026-05-06 02:36 33.90263 -118.64338 10918 ft 205 kts 184°
2026-05-06 02:37 33.88915 -118.64002 11423 ft 200 kts 143°
2026-05-06 02:37 33.88085 -118.62738 11880 ft 194 kts 109°
2026-05-06 02:37 33.87623 -118.61234 12427 ft 193 kts 104°
2026-05-06 02:37 33.87214 -118.59692 12934 ft 194 kts 103°
2026-05-06 02:38 33.86848 -118.58134 13373 ft 201 kts 101°
2026-05-06 02:38 33.86487 -118.56408 13486 ft 223 kts 99°
2026-05-06 02:38 33.86138 -118.54571 13874 ft 229 kts 99°
2026-05-06 02:38 33.85802 -118.52701 14456 ft 228 kts 98°
2026-05-06 02:39 33.85539 -118.51195 14885 ft 228 kts 98°
2026-05-06 02:39 33.85361 -118.50152 15157 ft 229 kts 98°
2026-05-06 02:39 33.85051 -118.48290 15663 ft 230 kts 98°
2026-05-06 02:39 33.84747 -118.46430 16126 ft 231 kts 97°
2026-05-06 02:40 33.84441 -118.44533 16593 ft 233 kts 97°
2026-05-06 02:40 33.84129 -118.42570 16856 ft 244 kts 97°
2026-05-06 02:40 33.83810 -118.40533 16944 ft 260 kts 97°
2026-05-06 02:40 33.83466 -118.38331 16977 ft 278 kts 98°
2026-05-06 02:41 33.83104 -118.36004 16982 ft 292 kts 97°
2026-05-06 02:41 33.82723 -118.33571 16981 ft 303 kts 98°
2026-05-06 02:41 33.82328 -118.31053 16982 ft 314 kts 98°
2026-05-06 02:41 33.81925 -118.28479 16978 ft 319 kts 98°
2026-05-06 02:42 33.81514 -118.25871 16976 ft 322 kts 98°
2026-05-06 02:42 33.81095 -118.23206 16974 ft 327 kts 98°
2026-05-06 02:42 33.80672 -118.20512 16974 ft 330 kts 98°
2026-05-06 02:42 33.80260 -118.17892 16971 ft 330 kts 98°
2026-05-06 02:43 33.79829 -118.15158 16976 ft 334 kts 98°
2026-05-06 02:43 33.79404 -118.12463 16970 ft 332 kts 98°
2026-05-06 02:43 33.78975 -118.09757 16973 ft 332 kts 98°
2026-05-06 02:43 33.78542 -118.07016 16974 ft 335 kts 98°
2026-05-06 02:44 33.78189 -118.04287 16973 ft 335 kts 94°
2026-05-06 02:44 33.77974 -118.01496 16974 ft 335 kts 92°
2026-05-06 02:44 33.77771 -117.98701 16971 ft 338 kts 93°
2026-05-06 02:44 33.77570 -117.95939 16968 ft 336 kts 93°
2026-05-06 02:45 33.77367 -117.93163 16971 ft 335 kts 93°
2026-05-06 02:45 33.77164 -117.90431 16966 ft 335 kts 93°
2026-05-06 02:45 33.76958 -117.87663 16969 ft 335 kts 93°
2026-05-06 02:45 33.76752 -117.84917 16971 ft 333 kts 93°
2026-05-06 02:46 33.76545 -117.82162 16976 ft 336 kts 93°
2026-05-06 02:46 33.76332 -117.79356 16976 ft 336 kts 93°
2026-05-06 02:46 33.76122 -117.76610 16976 ft 336 kts 93°
2026-05-06 02:46 33.75910 -117.73837 16980 ft 338 kts 93°
2026-05-06 02:47 33.75694 -117.71024 16981 ft 338 kts 93°
2026-05-06 02:47 33.75481 -117.68239 16979 ft 339 kts 93°
2026-05-06 02:47 33.75263 -117.65404 16981 ft 340 kts 93°
2026-05-06 02:47 33.75046 -117.62620 16974 ft 338 kts 93°
2026-05-06 02:48 33.74829 -117.59836 16977 ft 338 kts 93°
2026-05-06 02:48 33.74607 -117.56984 16985 ft 340 kts 93°
2026-05-06 02:48 33.74389 -117.54204 16983 ft 337 kts 93°
2026-05-06 02:48 33.74169 -117.51404 16987 ft 338 kts 93°
2026-05-06 02:49 33.73950 -117.48608 16986 ft 340 kts 93°
2026-05-06 02:49 33.73726 -117.45766 16987 ft 339 kts 93°
2026-05-06 02:49 33.73503 -117.42941 16985 ft 341 kts 93°
2026-05-06 02:49 33.73279 -117.40109 16967 ft 339 kts 93°
2026-05-06 02:50 33.73060 -117.37347 16988 ft 338 kts 93°
2026-05-06 02:50 33.72835 -117.34502 16980 ft 340 kts 93°
2026-05-06 02:50 33.72613 -117.31730 16980 ft 339 kts 94°
2026-05-06 02:50 33.72389 -117.28950 16990 ft 338 kts 94°
2026-05-06 02:51 33.72161 -117.26131 16730 ft 339 kts 93°
2026-05-06 02:51 33.71940 -117.23374 16226 ft 331 kts 93°
2026-05-06 02:51 33.71719 -117.20622 15709 ft 329 kts 93°
2026-05-06 02:51 33.71501 -117.17915 15221 ft 327 kts 93°
2026-05-06 02:52 33.71287 -117.15273 15081 ft 309 kts 93°
2026-05-06 02:52 33.71083 -117.12774 15088 ft 294 kts 93°
2026-05-06 02:52 33.70882 -117.10300 15109 ft 296 kts 93°
2026-05-06 02:52 33.70684 -117.07892 15115 ft 296 kts 93°
2026-05-06 02:53 33.70478 -117.05405 15119 ft 299 kts 94°
2026-05-06 02:53 33.70274 -117.02937 15116 ft 297 kts 93°
2026-05-06 02:53 33.70072 -117.00502 15116 ft 295 kts 93°
2026-05-06 02:53 33.69867 -116.98022 15049 ft 296 kts 93°
2026-05-06 02:54 33.69668 -116.95620 14814 ft 290 kts 93°
2026-05-06 02:54 33.69471 -116.93228 14562 ft 286 kts 93°
2026-05-06 02:54 33.69276 -116.90861 14310 ft 283 kts 94°
2026-05-06 02:54 33.69084 -116.88554 14071 ft 277 kts 93°
2026-05-06 02:55 33.68893 -116.86262 13844 ft 276 kts 93°
2026-05-06 02:55 33.68703 -116.83990 13550 ft 274 kts 93°
2026-05-06 02:55 33.68514 -116.81743 13340 ft 271 kts 93°
2026-05-06 02:55 33.68325 -116.79492 13097 ft 270 kts 93°
2026-05-06 02:56 33.68136 -116.77250 12866 ft 268 kts 93°
2026-05-06 02:56 33.67949 -116.75054 12579 ft 269 kts 93°
2026-05-06 02:56 33.67759 -116.72800 12200 ft 273 kts 93°
2026-05-06 02:56 33.67567 -116.70549 11770 ft 271 kts 93°
2026-05-06 02:57 33.67379 -116.68327 11288 ft 268 kts 93°
2026-05-06 02:57 33.67193 -116.66119 10791 ft 263 kts 93°
2026-05-06 02:57 33.67010 -116.63987 10276 ft 256 kts 93°
2026-05-06 02:57 33.66832 -116.61880 9762 ft 252 kts 93°
2026-05-06 02:58 33.66657 -116.59822 9299 ft 245 kts 93°
2026-05-06 02:58 33.66486 -116.57865 9132 ft 228 kts 93°
2026-05-06 02:58 33.66322 -116.55993 9085 ft 224 kts 93°
2026-05-06 02:58 33.66159 -116.54139 9059 ft 219 kts 93°
2026-05-06 02:59 33.66002 -116.52350 9049 ft 214 kts 93°
2026-05-06 02:59 33.65847 -116.50591 9064 ft 210 kts 93°
2026-05-06 02:59 33.65697 -116.48872 9060 ft 206 kts 93°
2026-05-06 02:59 33.65548 -116.47189 9070 ft 204 kts 92°
2026-05-06 03:00 33.65400 -116.45507 9059 ft 202 kts 92°
2026-05-06 03:00 33.65253 -116.43832 9060 ft 200 kts 92°
2026-05-06 03:00 33.65108 -116.42162 8810 ft 204 kts 92°
2026-05-06 03:00 33.64967 -116.40461 8325 ft 202 kts 92°
2026-05-06 03:01 33.64813 -116.38808 7833 ft 204 kts 94°
2026-05-06 03:01 33.64611 -116.37130 7332 ft 204 kts 95°
2026-05-06 03:01 33.64403 -116.35464 6835 ft 204 kts 95°
2026-05-06 03:01 33.64192 -116.33761 6332 ft 205 kts 96°
2026-05-06 03:02 33.63990 -116.32065 5841 ft 204 kts 95°
2026-05-06 03:02 33.64069 -116.30398 5338 ft 200 kts 67°
2026-05-06 03:02 33.64878 -116.29125 4849 ft 195 kts 31°
2026-05-06 03:02 33.66175 -116.28824 4359 ft 201 kts 346°
2026-05-06 03:03 33.67431 -116.29617 4262 ft 203 kts 324°
2026-05-06 03:03 33.68516 -116.30633 4399 ft 193 kts 321°
2026-05-06 03:03 33.69506 -116.31639 4471 ft 183 kts 317°
2026-05-06 03:03 33.70295 -116.32779 4509 ft 175 kts 306°
2026-05-06 03:04 33.70967 -116.33996 4315 ft 176 kts 303°
2026-05-06 03:04 33.71605 -116.35219 4070 ft 167 kts 302°
2026-05-06 03:04 33.72189 -116.36377 3828 ft 159 kts 301°
2026-05-06 03:04 33.72757 -116.37518 3605 ft 160 kts 301°
2026-05-06 03:05 33.73321 -116.38676 3373 ft 163 kts 300°
2026-05-06 03:05 33.73904 -116.39846 3122 ft 157 kts 305°
2026-05-06 03:05 33.74535 -116.40848 2786 ft 148 kts 307°
2026-05-06 03:05 33.75151 -116.41780 2471 ft 136 kts 307°
2026-05-06 03:06 33.75693 -116.42651 2193 ft 123 kts 308°
2026-05-06 03:06 33.76181 -116.43417 1903 ft 114 kts 309°
2026-05-06 03:06 33.76688 -116.44190 1720 ft 117 kts 309°
2026-05-06 03:06 33.77208 -116.44968 1659 ft 126 kts 310°
2026-05-06 03:07 33.77785 -116.45780 1626 ft 129 kts 312°
2026-05-06 03:07 33.78394 -116.46555 1302 ft 127 kts 316°
2026-05-06 03:07 33.79038 -116.47242 1127 ft 120 kts 320°
2026-05-06 03:07 33.79675 -116.47851 1101 ft 118 kts 322°
2026-05-06 03:08 33.80353 -116.48431 1015 ft 118 kts 324°
2026-05-06 03:08 33.81013 -116.49042 811 ft 116 kts 322°
2026-05-06 03:08 33.81651 -116.49599 573 ft 113 kts 322°
2026-05-06 03:08 33.82270 -116.50150 451 ft 104 kts 323°
2026-05-06 03:09 33.82772 -116.50598 454 ft 71 kts 323°
2026-05-06 03:09 33.83073 -116.50864 463 ft 39 kts 324°
2026-05-06 03:09 33.83245 -116.51014 469 ft 24 kts 323°
2026-05-06 03:09 33.83333 -116.51124 472 ft 13 kts 269°
2026-05-06 03:10 33.83285 -116.51192 472 ft 9 kts 194°
2026-05-06 03:10 33.83281 -116.51193 472 ft 0 kts 194°
2026-05-06 03:11 33.83269 -116.51196 472 ft 5 kts 192°
2026-05-06 03:11 33.83208 -116.51186 470 ft 11 kts 155°
2026-05-06 03:11 33.83124 -116.51121 467 ft 16 kts 143°
2026-05-06 03:12 33.83020 -116.51026 464 ft 21 kts 143°
2026-05-06 03:12 33.82909 -116.50926 460 ft 20 kts 142°
2026-05-06 03:12 33.82787 -116.50808 456 ft 23 kts 145°
2026-05-06 03:12 33.82644 -116.50688 451 ft 25 kts 142°
2026-05-06 03:13 33.82506 -116.50559 447 ft 24 kts 144°
2026-05-06 03:13 33.82378 -116.50447 443 ft 20 kts 144°
2026-05-06 03:13 33.82276 -116.50476 442 ft 16 kts 232°
2026-05-06 03:13 33.82212 -116.50570 442 ft 11 kts 238°
2026-05-06 03:14 33.82199 -116.50648 442 ft 7 kts 284°
2026-05-06 03:14 33.82220 -116.50663 443 ft 3 kts
2026-05-06 03:14 33.82248 -116.50661 443 ft 3 kts 359°
2026-05-06 03:14 33.82252 -116.50661 443 ft 0 kts 359°